Flag for Germany Weather past 2 weeks in Munich, Bavaria, Germany

Now
57 °F

Clear.


Feels Like: 57 °F
Forecast: 59 / 87 °F
Wind: 5 mph from Southwest

Location: Munich / Franz Josef Strauss Airport

Current Time: Aug 28, 2015 at 4:35:02 AM

Latest Report: Aug 28, 2015 at 4:20 AM


Visibility: 10 mi

Pressure: 29.98 "Hg (28.16 "Hg at 526m altitude)

Humidity: 94%

Dew point: 55 °F

Location of MunichLocation

Historic Weather in Munich — Graph

°F

Munich temperature yesterday

Maximum temperature yesterday: 86 °F (at 3:50 PM)
Minimum temperature yesterday: 48 °F (at 3:50 AM)
Average temperature yesterday: 67 °F

Past Weeks' High & Low Weather Summary

 TemperatureHumidityPressure
High93 °F (Aug 13, 2:50 PM)100% (Aug 17, 11:50 PM)30.30 "Hg (Aug 17, 11:50 PM)
Low45 °F (Aug 22, 6:20 AM)20% (Aug 13, 3:20 PM)29.71 "Hg (Aug 24, 4:50 PM)
Average65 °F72%30.00 "Hg
* Reported Aug 13 3:20 AM — Aug 28 3:20 AM, Munich, Weather by CustomWeather, © 2015

Note: Actual official high and low records may vary slightly from our data, if they occured in-between our weather recording intervals... More about our weather records

Advertising

Munich weather history for previous 24 hours

 ConditionsComfort  
Time TempWeatherWind HumidityBarometerVisibility
3:20 AM
Fri, Aug 28
59 °FClear.2 mph88%29.98 "Hg10 mi
2:50 AM59 °FClear.2 mph94%29.95 "Hg10 mi
2:20 AM61 °FClear.2 mph88%29.95 "Hg10 mi
1:50 AM61 °FClear.3 mph83%29.95 "Hg10 mi
1:20 AM63 °FPassing clouds.3 mph83%29.95 "HgN/A
12:50 AM63 °FClear.3 mph83%29.95 "Hg10 mi
12:20 AM63 °FPassing clouds.3 mph83%29.95 "HgN/A
11:50 PM
Thu, Aug 27
64 °FClear.1 mph78%29.95 "Hg10 mi
11:20 PM64 °FClear.No wind78%29.95 "Hg10 mi
10:50 PM66 °FClear.1 mph73%29.95 "Hg10 mi
10:20 PM70 °FClear.2 mph69%29.95 "Hg10 mi
9:50 PM68 °FClear.2 mph78%29.95 "Hg10 mi
9:20 PM68 °FClear.5 mph73%29.95 "Hg10 mi
8:50 PM72 °FPassing clouds.5 mph65%29.95 "HgN/A
8:20 PM75 °FSunny.3 mph57%29.95 "Hg10 mi
7:50 PM77 °FSunny.5 mph54%29.92 "Hg10 mi
7:20 PM79 °FSunny.5 mph51%29.92 "Hg10 mi
6:50 PM81 °FSunny.5 mph45%29.95 "Hg10 mi
6:20 PM82 °FPassing clouds.3 mph37%29.95 "HgN/A
5:50 PM84 °FSunny.6 mph31%29.95 "Hg10 mi
5:20 PM86 °FPassing clouds.5 mph29%29.95 "HgN/A
4:50 PM86 °FPassing clouds.5 mph29%29.95 "HgN/A
4:20 PM86 °FSunny.7 mph29%29.95 "Hg10 mi
3:50 PM86 °FPassing clouds.7 mph27%29.95 "HgN/A
3:20 PM84 °FSunny.6 mph29%29.95 "Hg10 mi
2:50 PM84 °FPassing clouds.7 mph29%29.95 "HgN/A
2:20 PM84 °FSunny.5 mph29%29.98 "Hg10 mi
1:50 PM84 °FPassing clouds.7 mph29%29.98 "HgN/A
1:20 PM82 °FPassing clouds.6 mph37%29.98 "HgN/A
12:50 PM82 °FSunny.5 mph37%29.98 "Hg10 mi
12:20 PM81 °FSunny.5 mph42%30.01 "Hg10 mi
11:50 AM79 °FPassing clouds.8 mph48%30.01 "HgN/A
11:20 AM77 °FPassing clouds.5 mph47%30.01 "HgN/A
10:50 AM75 °FPassing clouds.7 mph57%30.01 "HgN/A
10:20 AM72 °FPassing clouds.6 mph65%30.04 "HgN/A
9:50 AM68 °FPassing clouds.3 mph73%30.04 "HgN/A
9:20 AM64 °FPassing clouds.5 mph83%30.04 "HgN/A
8:50 AM61 °FSunny.No wind88%30.04 "Hg10 mi
8:20 AM59 °FSunny.2 mph88%30.04 "Hg10 mi
7:50 AM57 °FSunny.No wind94%30.04 "Hg10 mi
7:20 AM52 °FClear.No wind94%30.01 "Hg10 mi
6:50 AM48 °FFog.No wind94%30.01 "HgN/A
6:20 AM48 °FFog.No wind94%30.01 "HgN/A
5:50 AM48 °FClear.No wind94%30.01 "Hg10 mi
5:20 AM48 °FClear.2 mph94%30.01 "Hg10 mi
4:50 AM48 °FClear.No wind94%30.01 "Hg10 mi
4:20 AM48 °FClear.2 mph94%30.01 "Hg10 mi
Weather by CustomWeather, © 2015

See weather overviewHow to use our weather pages